Big Rapids, MI

6:34 AM EST on November 19, 2017 (GMT -0500)
Roben-Hood

Weather History for KRQB - January, 2012

Change the Weather History Date:

Thursday, January 12, 2012

  Actual Average Record
Temperature  
Mean Temperature 30 °F -  
Max Temperature 34 °F 26 °F 54 °F (2013)
Min Temperature 26 °F 10 °F -7 °F (1979)
Degree Days  
Heating Degree Days 35    
Moisture  
Dew Point 31 °F    
Average Humidity 100    
Maximum Humidity 100    
Minimum Humidity 100    
Precipitation  
Precipitation 0.00 in - - ()
Sea Level Pressure  
Sea Level Pressure 29.39 in    
Wind  
Wind Speed 2 mph (North)    
Max Wind Speed 7 mph    
Max Gust Speed -    
Visibility 3 miles    
Events Rain , Snow    
Averages and records for this station are not official NWS values.
T = Trace of Precipitation, MM = Missing Value Source: NWS Daily Summary

Daily Weather History Graph

Daily Weather History Graph

Search for Another Location

Airport or City:

Trip Planner

Search our weather history database for the weather conditions in past years. The results will help you decide how hot, cold, wet, or windy it might be!

Date:

Astronomy

Jan. 12, 2012 Rise Set
Actual Time 8:14 AM EST 5:26 PM EST
Civil Twilight 7:42 AM EST 5:58 PM EST
Nautical Twilight 7:06 AM EST 6:34 PM EST
Astronomical Twilight 6:31 AM EST 7:08 PM EST
Moon 9:40 PM EST (1/12) 9:49 AM EST (1/12)
Length of Visible Light 10h 16m
Length of Day
9h 12m
Waning Gibbous, 87% of the Moon is Illuminated
Jan 12
Waning Gibbous
Jan 16
Last Quarter
Jan 23
New
Jan 30
First Quarter
Feb 7
Full

Hourly Weather History & Observations

Time (EST) Temp. Windchill Dew Point Humidity Pressure Visibility Wind Dir Wind Speed Gust Speed Precip Events Conditions
12:14 AM 29.3 °F 25.6 °F 29.3 °F 100% 29.48 in 7.0 mi North 3.5 mph - N/A   Clear
12:34 AM 29.3 °F - 29.3 °F 100% 29.48 in 5.0 mi Calm Calm - N/A   Clear
12:55 AM 28.9 °F - 28.9 °F 100% 29.48 in 5.0 mi Calm Calm - N/A   Clear
1:14 AM 29.1 °F - 29.1 °F 100% 29.48 in 5.0 mi Calm Calm - N/A   Clear
1:34 AM 28.4 °F - 28.4 °F 100% 29.47 in 5.0 mi Calm Calm - N/A   Clear
1:55 AM 28.2 °F - 28.2 °F 100% 29.47 in 5.0 mi Calm Calm - N/A   Scattered Clouds
2:14 AM 29.1 °F - 29.1 °F 100% 29.47 in 5.0 mi Calm Calm - N/A   Overcast
2:34 AM 29.3 °F - 29.3 °F 100% 29.47 in 7.0 mi Calm Calm - N/A   Overcast
2:55 AM 29.3 °F - 29.3 °F 100% 29.47 in 5.0 mi Calm Calm - N/A   Overcast
3:14 AM 29.7 °F - 29.7 °F 100% 29.47 in 5.0 mi Calm Calm - N/A   Overcast
3:34 AM 29.1 °F - 29.1 °F 100% 29.47 in 5.0 mi Calm Calm - N/A   Overcast
3:54 AM 29.1 °F - 29.1 °F 100% 29.46 in 7.0 mi Calm Calm - N/A   Overcast
4:14 AM 28.4 °F - 28.4 °F 100% 29.45 in 5.0 mi Calm Calm - N/A   Scattered Clouds
4:35 AM 27.9 °F - 27.9 °F 100% 29.44 in 5.0 mi Calm Calm - N/A   Scattered Clouds
4:54 AM 27.9 °F - 27.9 °F 100% 29.44 in 4.0 mi Calm Calm - N/A   Scattered Clouds
5:14 AM 26.8 °F - 26.8 °F 100% 29.44 in 4.0 mi Calm Calm - N/A   Mostly Cloudy
5:35 AM 27.1 °F - 27.1 °F 100% 29.43 in 4.0 mi Calm Calm - N/A   Mostly Cloudy
5:54 AM 27.5 °F - 27.5 °F 100% 29.42 in 4.0 mi Calm Calm - N/A   Overcast
6:14 AM 28.6 °F - 28.6 °F 100% 29.42 in 5.0 mi Calm Calm - N/A   Scattered Clouds
6:35 AM 29.5 °F 25.9 °F 29.5 °F 100% 29.42 in 4.0 mi NNW 3.5 mph - N/A   Mostly Cloudy
6:54 AM 30.2 °F 26.7 °F 30.2 °F 100% 29.42 in 4.0 mi North 3.5 mph - N/A   Overcast
7:14 AM 30.0 °F - 30.0 °F 100% 29.42 in 4.0 mi Calm Calm - N/A   Overcast
7:34 AM 30.0 °F - 30.0 °F 100% 29.43 in 4.0 mi Calm Calm - N/A   Overcast
7:54 AM 30.6 °F - 30.6 °F 100% 29.43 in 4.0 mi Calm Calm - N/A   Overcast
8:14 AM 31.3 °F 27.9 °F 31.3 °F 100% 29.42 in 3.0 mi NNW 3.5 mph - N/A   Overcast
8:35 AM 32.0 °F - 32.0 °F 100% 29.42 in 4.0 mi Calm Calm - N/A   Overcast
8:54 AM 31.5 °F - 31.5 °F 100% 29.41 in 3.0 mi Calm Calm - N/A   Overcast
9:14 AM 31.6 °F - 31.6 °F 100% 29.41 in 2.5 mi Calm Calm - N/A   Overcast
9:34 AM 32.7 °F 29.6 °F 32.7 °F 100% 29.40 in 3.0 mi NW 3.5 mph - N/A   Overcast
9:54 AM 33.3 °F 30.2 °F 33.3 °F 100% 29.40 in 3.0 mi WNW 3.5 mph - N/A   Overcast
10:14 AM 33.6 °F - 33.6 °F 100% 29.39 in 4.0 mi Calm Calm - N/A   Overcast
10:35 AM 33.8 °F 30.8 °F 33.8 °F 100% 29.39 in 2.5 mi North 3.5 mph - N/A Snow Light Snow
10:54 AM 34.0 °F 28.8 °F 34.0 °F 100% 29.38 in 3.0 mi North 5.8 mph - N/A Snow Light Snow
11:14 AM 34.0 °F 29.8 °F 34.0 °F 100% 29.38 in 2.5 mi North 4.6 mph - N/A Rain Light Rain
11:34 AM 34.3 °F 30.2 °F 34.3 °F 100% 29.37 in 2.5 mi North 4.6 mph - N/A   Overcast
11:54 AM 34.7 °F 29.6 °F 34.7 °F 100% 29.37 in 2.5 mi NNW 5.8 mph - N/A   Overcast
12:14 PM 34.7 °F 30.6 °F 34.7 °F 100% 29.35 in 2.5 mi North 4.6 mph - N/A   Overcast
12:35 PM 34.7 °F 30.6 °F 34.7 °F 100% 29.34 in 1.8 mi North 4.6 mph - N/A Snow Light Snow
12:54 PM 34.0 °F 29.8 °F 34.0 °F 100% 29.34 in 1.5 mi NNW 4.6 mph - N/A Snow Light Snow
1:14 PM 34.0 °F 28.8 °F 34.0 °F 100% 29.32 in 1.8 mi North 5.8 mph - N/A Snow Light Snow
1:34 PM 34.0 °F 28.0 °F 34.0 °F 100% 29.31 in 1.5 mi North 6.9 mph - N/A Snow Light Snow
1:54 PM 33.8 °F 29.6 °F 33.8 °F 100% 29.30 in 1.8 mi NNE 4.6 mph - N/A Snow Light Snow
2:14 PM 33.8 °F 29.6 °F 33.8 °F 100% 29.30 in 1.8 mi North 4.6 mph - N/A Snow Light Snow
2:34 PM 33.4 °F 30.4 °F 33.4 °F 100% 29.30 in 1.5 mi North 3.5 mph - N/A Snow Light Snow
2:54 PM 33.1 °F - 33.1 °F 100% 29.30 in 1.0 mi Calm Calm - N/A Snow Light Snow
3:14 PM 32.7 °F - 32.7 °F 100% 29.30 in 0.8 mi Calm Calm - N/A Snow Light Snow
3:34 PM 32.5 °F - 32.5 °F 100% 29.30 in 0.5 mi Calm Calm - N/A Snow Light Snow
3:54 PM 32.4 °F 29.1 °F 32.4 °F 100% 29.30 in 0.5 mi NNW 3.5 mph - N/A Snow Light Snow
4:14 PM 32.4 °F 27.9 °F 32.4 °F 100% 29.30 in 0.5 mi North 4.6 mph - N/A Snow Light Snow
4:34 PM 32.5 °F 29.3 °F 32.5 °F 100% 29.31 in 0.8 mi North 3.5 mph - N/A Snow Light Snow
4:54 PM 32.4 °F 29.1 °F 32.4 °F 100% 29.31 in 0.5 mi North 3.5 mph - N/A Snow Light Snow
5:14 PM 32.4 °F - 32.4 °F 100% 29.31 in 0.8 mi Calm Calm - N/A Snow Light Snow
5:34 PM 32.4 °F 29.1 °F 32.4 °F 100% 29.31 in 0.8 mi NNW 3.5 mph - N/A Snow Light Snow
6:14 PM 32.5 °F - 32.5 °F 100% 29.31 in 2.0 mi Calm Calm - N/A Snow Light Snow
6:34 PM 32.5 °F - 32.5 °F 100% 29.31 in 2.0 mi Calm Calm - N/A Snow Light Snow
6:54 PM 32.4 °F - 32.4 °F 100% 29.31 in 1.5 mi Calm Calm - N/A Snow Light Snow
7:14 PM 32.2 °F - 32.2 °F 100% 29.31 in 1.0 mi Calm Calm - N/A Snow Light Snow
7:34 PM 32.4 °F - 32.4 °F 100% 29.31 in 1.2 mi Calm Calm - N/A Snow Light Snow
7:55 PM 32.4 °F 27.9 °F 32.4 °F 100% 29.30 in 1.2 mi NNW 4.6 mph - N/A Snow Light Snow
8:14 PM 32.5 °F 27.1 °F 32.5 °F 100% 29.30 in 1.5 mi NNW 5.8 mph - N/A Snow Light Snow
8:34 PM 32.5 °F 29.3 °F 32.5 °F 100% 29.30 in 1.8 mi North 3.5 mph - N/A Snow Light Snow
8:54 PM 32.5 °F 27.1 °F 32.5 °F 100% 29.30 in 2.0 mi North 5.8 mph - N/A Snow Light Snow
9:14 PM 32.7 °F 27.3 °F 32.7 °F 100% 29.30 in 3.0 mi North 5.8 mph - N/A Snow Light Snow
9:55 PM 32.5 °F 28.1 °F 32.5 °F 100% 29.30 in 2.0 mi NNW 4.6 mph - N/A Snow Light Snow
10:14 PM 32.5 °F 25.5 °F 32.5 °F 100% 29.30 in 1.8 mi North 8.1 mph - N/A Snow Light Snow
10:34 PM 32.4 °F 26.9 °F 32.4 °F 100% 29.30 in 2.5 mi North 5.8 mph - N/A Snow Light Snow
10:54 PM 32.2 °F 25.0 °F 32.2 °F 100% 29.30 in 2.0 mi North 8.1 mph - N/A Snow Light Snow
11:14 PM 32.0 °F 23.0 °F 32.0 °F 100% 29.30 in 1.5 mi North 11.5 mph 16.1 mph N/A Snow Light Snow
11:34 PM 31.1 °F 20.9 °F 31.1 °F 100% 29.30 in 2.0 mi North 13.8 mph 18.4 mph N/A Snow Light Snow
11:55 PM 30.7 °F 22.0 °F 30.7 °F 100% 29.30 in 1.8 mi NNW 10.4 mph - N/A Snow Light Snow